Torna al catalogo

STARLINK-37665

AttivoComunicazioniVLEO
NORAD 69238·PAYLOAD·🇺🇸 United States

Lanciato May 29, 2026 da Cape Canaveral Space Force Station

Loading…

Prossimi Passaggi (prossime 24 ore)

TLE

AggiornatoSource: CelesTrak SupGP

Epoca: Sep 14, 2026, 23:24 UTC

1 69238C 26117A   26257.97548611 -.00066717  00000+0 -19710-2 0  2573
2 69238  53.1568 179.6973 0001333  90.4250  37.6460 15.34426547    18

Traccia STARLINK-37665 in tempo reale con AllMySat

Download on the App Store